Date String (YYYY-MM-DD hh:mm:ss) UTC,Instrument flags,absolute air pressure of the measurement (hPa),sample flow rate (lpm),inlet stack bypass flow (lpm),air temperature of the measurement (°C),ambient temperature measured by the external sensor (°C),aerosol sample conditioner tube jacket temperature (°C),OPC LED temperature (°C),internal box temperature (°C),relative humidity of the measurement (%),span deviation,mass concentration of particles derived from Lorenz-Mie calculation of OPC scattering (μg/m³),mass concentration of particles derived from Lorenz-Mie calculation of OPC scattering (μg/m³),mass concentration of particles derived from Lorenz-Mie calculation of OPC scattering (μg/m³)
DateTimeUTC,F1_M11,P_M11,Q1_M11,Q2_M11,T1_M11,T2_M11,T3_M11,T4_M11,T5_M11,U1_M11,ZSPAN_M11,X2_M11,X0_M11,X1_M11
2023-07-09 15:00:00,SystemResetWarning,0832.0,4.99,000.00,029.6,028.4,000.0,038.1,031.2,31.8,0000.1,0006.17,0010.52,0005.56
2023-07-09 15:01:00,SystemResetWarning,0832.0,4.99,000.00,029.7,028.3,000.0,038.1,031.3,32.5,0000.2,0006.14,0010.48,0005.56
2023-07-09 15:02:00,SystemResetWarning,0832.0,5.00,000.00,029.7,027.0,000.0,038.0,031.2,33.3,-000.0,0006.13,0010.48,0005.55
2023-07-09 15:03:00,SystemResetWarning,0832.0,5.00,000.00,029.6,025.6,000.0,037.9,031.0,34.1,0000.0,0006.11,0010.46,0005.55
2023-07-09 15:04:00,SystemResetWarning,0832.0,5.01,000.00,029.5,025.3,000.0,037.8,030.8,34.0,0000.0,0006.07,0010.15,0005.55
2023-07-09 15:05:00,SystemResetWarning,0832.0,5.01,000.00,029.4,025.5,000.0,037.8,030.6,34.2,0000.0,0006.04,0009.58,0005.53
2023-07-09 15:06:00,SystemResetWarning,0832.0,4.99,000.00,029.3,025.9,000.0,037.9,030.6,33.8,0000.0,0006.03,0009.39,0005.54
2023-07-09 15:07:00,SystemResetWarning,0832.0,4.99,000.00,029.3,026.4,000.0,037.9,030.7,33.8,0000.0,0006.04,0009.49,0005.55
2023-07-09 15:08:00,SystemResetWarning,0832.0,4.99,000.00,029.3,026.7,000.0,037.9,030.7,34.9,0000.0,0006.05,0009.49,0005.55
2023-07-09 15:09:00,SystemResetWarning,0832.0,5.01,000.00,029.4,027.0,000.0,037.9,030.8,34.1,0000.0,0006.09,0009.54,0005.58
2023-07-09 15:10:00,SystemResetWarning,0832.0,5.00,000.00,029.4,027.3,000.0,037.9,030.9,34.2,0000.0,0006.11,0009.69,0005.62
2023-07-09 15:11:00,SystemResetWarning,0832.1,5.00,000.00,029.5,027.5,000.0,037.9,030.9,33.1,0000.0,0006.16,0009.97,0005.66
2023-07-09 15:12:00,SystemResetWarning,0832.0,5.00,000.00,029.5,027.7,000.0,037.9,031.0,33.3,0000.0,0006.20,0010.03,0005.68
2023-07-09 15:13:00,SystemResetWarning,0832.1,4.98,000.00,029.6,027.9,000.0,038.0,031.0,32.3,0000.0,0006.22,0010.63,0005.69
2023-07-09 15:14:00,SystemResetWarning,0832.1,5.00,000.00,029.6,028.0,000.0,038.0,031.1,32.9,0000.0,0006.23,0010.56,0005.71
2023-07-09 15:15:00,SystemResetWarning,0832.2,5.02,000.00,029.6,028.1,000.0,038.0,031.1,32.5,0000.0,0006.24,0010.56,0005.72
2023-07-09 15:16:00,SystemResetWarning,0832.2,4.98,000.00,029.7,028.2,000.0,038.0,031.2,32.8,0000.0,0006.30,0010.70,0005.74
2023-07-09 15:17:00,SystemResetWarning,0832.2,5.00,000.00,029.7,028.3,000.0,038.1,031.2,33.0,0000.0,0006.32,0010.70,0005.73
2023-07-09 15:18:00,SystemResetWarning,0832.2,5.01,000.00,029.7,028.3,000.0,038.1,031.2,32.7,0000.0,0006.26,0010.47,0005.71
2023-07-09 15:19:00,SystemResetWarning,0832.2,4.99,000.00,029.7,027.1,000.0,038.0,031.2,32.4,0000.0,0006.22,0011.19,0005.68
2023-07-09 15:20:00,SystemResetWarning,0832.2,5.00,000.00,029.7,025.7,000.0,037.9,030.9,33.2,0000.4,0006.21,0011.20,0005.64
2023-07-09 15:21:00,SystemResetWarning,0832.2,5.01,000.00,029.6,025.3,000.0,037.8,030.8,33.3,0000.2,0006.17,0011.27,0005.59
2023-07-09 15:22:00,SystemResetWarning,0832.2,5.01,000.00,029.5,025.5,000.0,037.9,030.5,33.6,0000.0,0006.12,0011.72,0005.56
2023-07-09 15:23:00,SystemResetWarning,0832.2,5.01,000.00,029.4,025.9,000.0,037.9,030.6,32.7,0000.0,0006.13,0011.99,0005.52
2023-07-09 15:24:00,SystemResetWarning,0832.2,5.01,000.00,029.4,026.3,000.0,037.9,030.6,33.1,0000.0,0006.09,0011.90,0005.49
2023-07-09 15:25:00,SystemResetWarning,0832.1,4.97,000.00,029.4,026.7,000.0,037.9,030.7,34.5,-000.1,0006.08,0012.08,0005.47
2023-07-09 15:26:00,SystemResetWarning,0832.2,5.04,000.00,029.5,027.0,000.0,037.9,030.8,34.8,0000.0,0006.08,0012.21,0005.45
2023-07-09 15:27:00,SystemResetWarning,0832.2,4.96,000.00,029.6,027.3,000.0,037.9,030.9,33.5,-000.0,0006.06,0012.22,0005.43
2023-07-09 15:28:00,SystemResetWarning,0832.2,5.00,000.00,029.7,027.5,000.0,038.0,031.0,34.6,-000.0,0006.04,0012.21,0005.43
2023-07-09 15:29:00,SystemResetWarning,0832.2,5.03,000.00,029.8,027.7,000.0,038.0,031.1,34.1,-000.0,0006.09,0012.33,0005.45
2023-07-09 15:30:00,SystemResetWarning,0832.2,4.98,000.00,029.9,027.9,000.0,038.0,031.1,33.3,0000.0,0006.11,0011.54,0005.46
2023-07-09 15:31:00,SystemResetWarning,0832.2,5.01,000.00,030.0,028.1,000.0,038.1,031.2,33.0,0000.0,0006.10,0011.43,0005.46
2023-07-09 15:32:00,SystemResetWarning,0832.2,5.01,000.00,030.1,028.2,000.0,038.1,031.2,33.4,0000.0,0006.10,0011.06,0005.47
2023-07-09 15:33:00,SystemResetWarning,0832.2,4.99,000.00,030.1,028.3,000.0,038.2,031.2,32.6,0000.0,0006.11,0010.38,0005.47
2023-07-09 15:34:00,SystemResetWarning,0832.2,4.99,000.00,030.2,028.3,000.0,038.2,031.3,33.5,0000.0,0006.09,0010.19,0005.47
2023-07-09 15:35:00,SystemResetWarning,0832.2,5.00,000.00,030.2,027.1,000.0,038.2,031.2,32.7,0000.0,0006.10,0009.62,0005.48
2023-07-09 15:36:00,SystemResetWarning,0832.2,5.00,000.00,030.1,025.6,000.0,038.1,031.0,33.3,0000.0,0006.12,0009.64,0005.47
2023-07-09 15:37:00,SystemResetWarning,0832.2,5.01,000.00,030.1,025.3,000.0,038.0,030.8,33.2,0000.0,0006.11,0009.45,0005.47
2023-07-09 15:38:00,SystemResetWarning,0832.2,5.00,000.00,029.9,025.5,000.0,038.1,030.6,33.6,0000.0,0006.09,0009.35,0005.46
2023-07-09 15:39:00,SystemResetWarning,0832.2,4.99,000.00,029.8,025.9,000.0,038.1,030.6,33.8,0000.0,0006.07,0009.25,0005.45
2023-07-09 15:40:00,SystemResetWarning,0832.2,5.00,000.00,029.8,026.3,000.0,038.2,030.7,34.3,0000.0,0006.01,0009.38,0005.44
2023-07-09 15:41:00,SystemResetWarning,0832.2,5.00,000.00,029.8,026.7,000.0,038.2,030.8,34.1,0000.0,0006.00,0009.68,0005.43
2023-07-09 15:42:00,SystemResetWarning,0832.1,5.01,000.00,029.8,027.0,000.0,038.2,030.8,34.2,0000.0,0006.02,0009.71,0005.45
2023-07-09 15:43:00,SystemResetWarning,0832.2,5.00,000.00,029.8,027.3,000.0,038.2,030.9,33.8,0000.0,0006.03,0009.77,0005.47
2023-07-09 15:44:00,SystemResetWarning,0832.2,5.00,000.00,029.8,027.6,000.0,038.2,031.0,33.5,-001.4,0006.03,0009.72,0005.49
2023-07-09 15:45:00,SystemResetWarning,0832.2,4.99,000.00,029.8,027.8,000.0,038.2,031.0,33.1,-001.7,0006.04,0009.70,0005.51
2023-07-09 15:46:00,SystemResetWarning,0832.2,5.01,000.00,029.8,027.9,000.0,038.2,031.1,33.5,-002.6,0006.00,0009.57,0005.53
2023-07-09 15:47:00,SystemResetWarning,0832.2,4.99,000.00,029.9,028.1,000.0,038.2,031.1,34.1,-002.0,0006.03,0009.85,0005.55
2023-07-09 15:48:00,SystemResetWarning,0832.2,5.01,000.00,029.9,028.2,000.0,038.2,031.2,33.6,-002.0,0006.00,0010.22,0005.55
2023-07-09 15:49:00,SystemResetWarning,0832.2,4.99,000.00,029.9,027.6,000.0,038.2,031.2,33.0,-002.1,0006.00,0010.43,0005.57
2023-07-09 15:50:00,SystemResetWarning,0832.2,5.00,000.00,029.9,026.0,000.0,038.0,031.0,33.5,-002.4,0005.99,0010.59,0005.58
2023-07-09 15:51:00,SystemResetWarning,0832.2,5.01,000.00,029.8,025.3,000.0,038.0,030.8,35.2,-001.7,0006.01,0010.63,0005.58
2023-07-09 15:52:00,SystemResetWarning,0832.2,5.02,000.00,029.9,025.4,000.0,038.0,030.7,34.7,-002.2,0006.00,0011.14,0005.60
2023-07-09 15:53:00,SystemResetWarning,0832.2,5.00,000.00,029.9,025.7,000.0,038.0,030.7,34.5,-000.4,0006.00,0011.12,0005.60
2023-07-09 15:54:00,SystemResetWarning,0832.2,5.00,000.00,030.0,026.2,000.0,038.0,030.8,34.0,0000.0,0006.01,0011.22,0005.60
2023-07-09 15:55:00,SystemResetWarning,0832.2,4.98,000.00,030.1,026.6,000.0,038.1,030.8,33.5,0000.0,0006.04,0011.29,0005.60
2023-07-09 15:56:00,SystemResetWarning,0832.3,5.02,000.00,030.1,026.9,000.0,038.1,030.9,33.1,0000.0,0006.04,0011.80,0005.58
2023-07-09 15:57:00,SystemResetWarning,0832.3,5.00,000.00,030.2,027.2,000.0,038.2,030.9,33.2,0000.0,0006.08,0012.46,0005.58
2023-07-09 15:58:00,SystemResetWarning,0832.3,4.98,000.00,030.2,027.5,000.0,038.2,031.0,34.4,0000.0,0006.07,0012.21,0005.59
2023-07-09 15:59:00,SystemResetWarning,0832.3,5.03,000.00,030.3,027.7,000.0,038.3,031.1,33.9,0000.0,0006.07,0011.71,0005.58
